User: anonymous   Login
Location: Niverville
(49.6028°N, 97.0419°W)
Time: 18:07:08
(UTC-06:00)
Language:

BREEZE-M DEB (TANK) - Orbit

View from above orbital plane
View from above orbital plane
View from above satellite
View from above satellite

Ground track
Ground track

The orbit data is extracted from the following two-line orbital elements,

1 33374U 08044B   15065.19069948  .00002543  00000-0  71808-3 0  9990
2 33374 049.4075 147.8090 5452270 305.1515 019.6884 04.85190252113439
Epoch (UTC): 06 March 2015 04:34:36
Eccentricity: 0.5452270
inclination: 49.4075°
perigee height: 324 km
apogee height: 16396 km
right ascension of ascending node: 147.8090°
argument of perigee: 305.1515°
revolutions per day: 4.85190252
mean anomaly at epoch: 19.6884°
orbit number at epoch: 11343

The dashed part of the orbit path shows where the satellite is in the earth's shadow,  

DLR